Location: Cabeza de los Veneras
(40.2000°N, 5.2000°W)
Time: 11:04:05
(UTC+00:00)

USA 281 - Pass Details

Date: 18 April 2024
Orbit: 1074 x 1084 km, 106.0° (Epoch: 20 May)

Event Time Altitude Azimuth Distance (km) Brightness Sun altitude
Exits shadow 19:59:04 13° 121° (ESE) 2,668 4.6 -10.9°
Maximum altitude 20:04:20 40° 57° (ENE) 1,545 3.8 -11.8°
Drops below altitude 10° 20:10:22 10° 351° (N) 2,932 6.0 -12.8°
Sets 20:13:02 0° 344° (NNW) 3,893 6.8 -13.2°
